Satellite-Ground Cal/Val Site Overpasses Predictions

Prediction of Satellite NPP Overpassing Cal/Val Site: Antarctic Dome C

Ground Cal/Val Site Location: Latitude: -75.10, Longitude: 123.35; Satellite-Ground Site NADIR distance within 100 km.

Table of predicted overpasses for the next 14.0 days since TLE Epoch: 2/19/2017
Interval Starting Time Ending Time Minimum Distance Time Minimum Distance (km)
1 02/20/2017 14:42:28 02/20/2017 14:42:53 02/20/2017 14:42:41 50.57
2 02/21/2017 07:44:08 02/21/2017 07:44:28 02/21/2017 07:44:18 72.02
3 02/22/2017 07:25:15 02/22/2017 07:25:42 02/22/2017 07:25:29 35.91
4 02/24/2017 15:07:41 02/24/2017 15:07:48 02/24/2017 15:07:44 96.22
5 02/25/2017 14:48:39 02/25/2017 14:49:08 02/25/2017 14:48:53 15.07
6 02/27/2017 07:31:28 02/27/2017 07:31:57 02/27/2017 07:31:42 2.64
7 03/02/2017 14:54:52 03/02/2017 14:55:21 03/02/2017 14:55:06 21.24
8 03/03/2017 14:36:10 03/03/2017 14:36:24 03/03/2017 14:36:17 85.97
9 03/04/2017 07:37:41 03/04/2017 07:38:08 03/04/2017 07:37:55 36.27
